Location: Olsztyn
(53.7767°N, 20.4765°E)
Time: 08:09:36
(UTC+01:00)

Transit 4A - Pass Details

Date: 03 October 2022
Orbit: 871 x 972 km, 66.8° (Epoch: 06 December)

Event Time Altitude Azimuth Distance (km) Brightness Sun altitude
Exits shadow 00:32:20 25° 27° (NNE) 1,748 9.7 -40.1°
Drops below altitude 10° 00:34:47 10° 38° (NE) 2,574 10.7 -40.1°
Sets 00:37:21 0° 43° (NE) 3,504 11.5 -40.0°
